DW8016 Weather Reports


Display with metric or nautical units.
time (UTC)temp
F
wind
direction
speed
MPH
gust
MPH
rain 1hr
in
rain 24hr
in
rain mn
in
humidity
%
barometer
mb
20260505184034 85 161 7.0 19.0 0.00 0.00 0.00 29 1008.8
20260505180756 86 180 5.0 20.0 0.00 0.00 0.00 30 1009.2
20260505175744 86 221 6.0 20.0 0.00 0.00 0.00 28 1009.3
20260505173633 86 201 6.0 19.0 0.00 0.00 0.00 30 1009.5
20260505171459 85 212 5.0 14.0 0.00 0.00 0.00 29 1009.6
20260505170520 84 263 5.0 14.0 0.00 0.00 0.00 31 1009.7
20260505165535 83 255 4.0 13.0 0.00 0.00 0.00 36 1009.8
20260505164539 83 228 4.0 13.0 0.00 0.00 0.00 36 1009.9
20260505163532 81 260 5.0 11.0 0.00 0.00 0.00 39 1010.1
20260505162530 82 229 4.0 12.0 0.00 0.00 0.00 38 1010.3
20260505161533 81 198 4.0 12.0 0.00 0.00 0.00 40 1010.6
20260505160517 81 194 4.0 11.0 0.00 0.00 0.00 39 1010.6
20260505152333 80 257 3.0 10.0 0.00 0.00 0.00 42 1011.0
20260505150212 78 200 5.0 11.0 0.00 0.00 0.00 42 1010.9
20260505124526 71 279 3.0 8.0 0.00 0.00 0.00 47 1011.2
20260505123509 69 215 3.0 9.0 0.00 0.00 0.00 48 1011.2
20260505122437 69 227 3.0 9.0 0.00 0.00 0.00 48 1011.3
20260505121404 68 259 3.0 8.0 0.00 0.00 0.00 50 1011.3
20260505120410 67 235 2.0 8.0 0.00 0.00 0.00 51 1011.1
20260505115348 65 226 1.0 6.0 0.00 0.00 0.00 54 1011.0
20260505113154 63 189 2.0 6.0 0.00 0.00 0.00 56 1010.8
20260505110944 62 235 1.0 10.0 0.00 0.00 0.00 57 1010.6
20260505101832 61 214 2.0 9.0 0.00 0.00 0.00 58 1010.1
20260505100854 61 188 2.0 9.0 0.00 0.00 0.00 59 1010.1
20260505095846 61 169 3.0 9.0 0.00 0.00 0.00 58 1010.1
20260505094831 62 213 3.0 8.0 0.00 0.00 0.00 58 1010.0
20260505093801 62 189 2.0 7.0 0.00 0.00 0.00 58 1009.9
20260505091601 62 173 3.0 8.0 0.00 0.00 0.00 58 1009.7
20260505090548 62 149 3.0 8.0 0.00 0.00 0.00 58 1009.6
20260505085523 62 234 2.0 9.0 0.00 0.00 0.00 58 1009.7
20260505084513 62 167 3.0 9.0 0.00 0.00 0.00 59 1009.7
20260505083501 62 161 3.0 9.0 0.00 0.00 0.00 60 1009.7
20260505081254 62 178 4.0 9.0 0.00 0.00 0.00 61 1009.7
20260505080237 62 163 3.0 9.0 0.00 0.00 0.00 61 1009.7
20260505075215 62 161 3.0 8.0 0.00 0.00 0.00 61 1009.6
20260505074210 62 217 3.0 7.0 0.00 0.00 0.00 61 1009.6
20260505072112 62 181 4.0 8.0 0.00 0.00 0.00 61 1009.6
20260505071043 62 185 2.0 5.0 0.00 0.00 0.00 60 1009.5
20260505070047 62 166 2.0 7.0 0.00 0.00 0.00 60 1009.4
20260505065021 63 163 2.0 7.0 0.00 0.00 0.00 60 1009.4
20260505064004 63 182 2.0 5.0 0.00 0.00 0.00 59 1009.4
20260505062940 63 175 1.0 5.0 0.00 0.00 0.00 59 1009.4
20260505060806 63 190 1.0 6.0 0.00 0.00 0.00 59 1009.4
20260505054616 64 173 1.0 6.0 0.00 0.00 0.00 58 1009.5
20260505053556 64 195 0.0 4.0 0.00 0.00 0.00 58 1009.5
20260505052544 64 196 0.0 4.0 0.00 0.00 0.00 57 1009.5
20260505051543 65 166 0.0 3.0 0.00 0.00 0.00 56 1009.6
20260505050537 65 166 0.0 3.0 0.00 0.00 0.00 55 1009.5
20260505041438 66 227 0.0 6.0 0.00 0.00 0.00 52 1009.8
20260505040409 66 196 1.0 6.0 0.00 0.00 0.00 51 1009.7
20260505035352 67 206 1.0 6.0 0.00 0.00 0.00 50 1009.6
20260505034332 67 196 0.0 5.0 0.00 0.00 0.00 49 1009.6
20260505033339 67 180 1.0 5.0 0.00 0.00 0.00 49 1009.6
20260505032328 68 214 1.0 7.0 0.00 0.00 0.00 48 1009.5
20260505030141 69 188 0.0 5.0 0.00 0.00 0.00 47 1009.6
20260505025143 69 190 1.0 6.0 0.00 0.00 0.00 46 1009.5
20260505021944 70 215 1.0 7.0 0.00 0.00 0.00 44 1009.5
20260505020914 70 230 2.0 7.0 0.00 0.00 0.00 44 1009.4
20260505014752 71 186 2.0 5.0 0.00 0.00 0.00 43 1009.3
20260505013757 71 210 0.0 6.0 0.00 0.00 0.00 42 1009.2
20260505012735 71 191 1.0 6.0 0.00 0.00 0.00 42 1009.0
20260505011747 72 180 2.0 8.0 0.00 0.00 0.00 41 1009.0
20260505005712 72 192 0.0 4.0 0.00 0.00 0.00 41 1008.9
20260505004700 72 178 1.0 6.0 0.00 0.00 0.00 41 1008.8
20260505003657 73 196 1.0 6.0 0.00 0.00 0.00 40 1008.8
20260505002707 73 203 1.0 6.0 0.00 0.00 0.00 39 1008.6
20260505001654 74 189 2.0 7.0 0.00 0.00 0.00 39 1008.6
20260505000640 74 281 2.0 13.0 0.00 0.00 0.00 38 1008.6
20260504235607 74 169 2.0 17.0 0.00 0.00 0.00 38 1008.5
20260504234555 74 213 3.0 17.0 0.00 0.00 0.00 37 1008.6
20260504233537 75 230 3.0 9.0 0.00 0.00 0.00 36 1008.4
20260504232505 75 231 3.0 14.0 0.00 0.00 0.00 36 1008.4
20260504231448 75 165 5.0 14.0 0.00 0.00 0.00 35 1008.3
20260504230442 76 162 4.0 11.0 0.00 0.00 0.00 35 1008.3
20260504224320 76 156 3.0 15.0 0.00 0.00 0.00 34 1008.3
20260504223248 76 175 5.0 15.0 0.00 0.00 0.00 34 1008.4
20260504222308 76 218 5.0 12.0 0.00 0.00 0.00 33 1008.4
20260504220131 76 96 5.0 25.0 0.00 0.00 0.00 33 1008.2
20260504214012 76 263 8.0 22.0 0.00 0.00 0.00 33 1008.3
20260504212950 77 244 5.0 14.0 0.00 0.00 0.00 31 1008.3
20260504210854 79 163 5.0 12.0 0.00 0.00 0.00 30 1008.3
20260504205820 79 145 5.0 10.0 0.00 0.00 0.00 29 1008.2
20260504204800 79 184 4.0 14.0 0.00 0.00 0.00 30 1008.4
20260504203813 79 175 4.0 14.0 0.00 0.00 0.00 28 1008.4
20260504202812 79 189 4.0 13.0 0.00 0.00 0.00 29 1008.5
20260504201749 79 250 3.0 10.0 0.00 0.00 0.00 29 1008.7
20260504200801 79 186 3.0 9.0 0.00 0.00 0.00 30 1008.8
20260504194546 79 229 3.0 11.0 0.00 0.00 0.00 30 1009.0
20260504193540 77 244 4.0 13.0 0.00 0.00 0.00 30 1009.2
20260504192531 77 213 5.0 13.0 0.00 0.00 0.00 30 1009.3
20260504190407 78 166 4.0 12.0 0.00 0.00 0.00 32 1009.7
20260504185424 77 167 5.0 12.0 0.00 0.00 0.00 31 1010.0
20260504184412 78 157 4.0 10.0 0.00 0.00 0.00 30 1010.1